Time,TemperatureF,DewpointF,PressureIn,WindDirection,WindDirectionDegrees,WindSpeedMPH,WindSpeedGustMPH,Humidity,HourlyPrecipIn,Conditions,Clouds,dailyrainin,SolarRadiationWatts/m^2,SoftwareType,DateUTC
2013-07-31 00:11:00,75.0,74.0,-100.00,East,96,3.0,6.0,98,0.00,,,1.19,1.000000,,2013-07-31 05:11:00,
2013-07-31 00:22:00,75.0,74.0,-100.00,East,96,3.0,6.0,98,0.00,,,1.19,1.000000,,2013-07-31 05:22:00,
2013-07-31 00:32:00,75.0,74.0,-100.00,East,96,3.0,6.0,98,0.00,,,1.19,1.000000,,2013-07-31 05:32:00,
2013-07-31 00:42:00,75.0,74.0,-100.00,East,96,3.0,6.0,98,0.00,,,1.19,1.000000,,2013-07-31 05:42:00,
2013-07-31 00:52:00,75.0,74.0,-100.00,East,96,3.0,6.0,98,0.00,,,1.19,1.000000,,2013-07-31 05:52:00,
2013-07-31 00:53:00,75.0,74.0,-100.00,ESE,122,0.0,4.0,97,0.01,,,1.20,1.000000,,2013-07-31 05:53:00,
2013-07-31 01:12:00,75.0,74.0,-100.00,ESE,122,0.0,4.0,97,0.01,,,1.20,1.000000,,2013-07-31 06:12:00,
2013-07-31 01:22:00,75.0,74.0,-100.00,ESE,122,0.0,4.0,97,0.01,,,1.20,1.000000,,2013-07-31 06:22:00,
2013-07-31 01:32:00,75.0,74.0,-100.00,ESE,122,0.0,4.0,97,0.01,,,1.20,1.000000,,2013-07-31 06:32:00,
2013-07-31 01:43:00,75.0,74.0,-100.00,ESE,122,0.0,4.0,97,0.01,,,1.20,1.000000,,2013-07-31 06:43:00,
2013-07-31 02:22:00,74.0,73.0,-100.00,SE,125,0.0,3.0,97,0.00,,,1.20,1.000000,,2013-07-31 07:22:00,
2013-07-31 02:32:00,74.0,73.0,-100.00,SE,125,0.0,3.0,97,0.00,,,1.20,1.000000,,2013-07-31 07:32:00,
2013-07-31 02:43:00,74.0,73.0,-100.00,SE,125,0.0,3.0,97,0.00,,,1.20,1.000000,,2013-07-31 07:43:00,
2013-07-31 02:52:00,74.0,73.0,-100.00,SE,125,0.0,3.0,97,0.00,,,1.20,1.000000,,2013-07-31 07:52:00,
2013-07-31 02:53:00,74.0,73.0,-100.00,NE,38,0.0,2.0,98,0.00,,,1.20,1.000000,,2013-07-31 07:53:00,
2013-07-31 03:22:00,74.0,73.0,-100.00,NE,38,0.0,2.0,98,0.00,,,1.20,1.000000,,2013-07-31 08:22:00,
2013-07-31 03:32:00,74.0,73.0,-100.00,NE,38,0.0,2.0,98,0.00,,,1.20,1.000000,,2013-07-31 08:32:00,
2013-07-31 03:42:00,74.0,73.0,-100.00,NE,38,0.0,2.0,98,0.00,,,1.20,1.000000,,2013-07-31 08:42:00,
2013-07-31 04:12:00,73.0,73.0,-100.00,SSW,194,0.0,0.0,99,0.00,,,1.20,1.000000,,2013-07-31 09:12:00,
2013-07-31 04:22:00,73.0,73.0,-100.00,SSW,194,0.0,0.0,99,0.00,,,1.20,1.000000,,2013-07-31 09:22:00,
2013-07-31 04:32:00,73.0,73.0,-100.00,SSW,194,0.0,0.0,99,0.00,,,1.20,1.000000,,2013-07-31 09:32:00,
2013-07-31 04:43:00,73.0,73.0,-100.00,SSW,194,0.0,0.0,99,0.00,,,1.20,1.000000,,2013-07-31 09:43:00,
2013-07-31 04:52:00,73.0,73.0,-100.00,SSW,194,0.0,0.0,99,0.00,,,1.20,1.000000,,2013-07-31 09:52:00,
2013-07-31 05:22:00,72.0,72.0,-100.00,NW,311,0.0,0.0,99,0.00,,,1.20,1.000000,,2013-07-31 10:22:00,
2013-07-31 05:32:00,72.0,72.0,-100.00,NW,311,0.0,0.0,99,0.00,,,1.20,1.000000,,2013-07-31 10:32:00,
2013-07-31 05:44:00,72.0,72.0,-100.00,NW,311,0.0,0.0,99,0.00,,,1.20,1.000000,,2013-07-31 10:44:00,
2013-07-31 05:52:00,72.0,72.0,-100.00,NW,311,0.0,0.0,99,0.00,,,1.20,1.000000,,2013-07-31 10:52:00,
2013-07-31 06:12:00,72.0,72.0,-100.00,ENE,72,0.0,1.0,99,0.00,,,1.19,1.000000,,2013-07-31 11:12:00,
2013-07-31 06:22:00,72.0,72.0,-100.00,ENE,72,0.0,1.0,99,0.00,,,1.19,1.000000,,2013-07-31 11:22:00,
2013-07-31 06:33:00,72.0,72.0,-100.00,ENE,72,0.0,1.0,99,0.00,,,1.19,1.000000,,2013-07-31 11:33:00,
2013-07-31 06:43:00,72.0,72.0,-100.00,ENE,72,0.0,1.0,99,0.00,,,1.19,1.000000,,2013-07-31 11:43:00,
2013-07-31 06:52:00,72.0,72.0,-100.00,ENE,72,0.0,1.0,99,0.00,,,1.19,1.000000,,2013-07-31 11:52:00,
2013-07-31 07:22:00,73.0,73.0,-100.00,NNW,337,0.0,2.0,99,0.00,,,0.73,10.000000,,2013-07-31 12:22:00,
2013-07-31 07:33:00,73.0,73.0,-100.00,NNW,337,0.0,2.0,99,0.00,,,0.73,10.000000,,2013-07-31 12:33:00,
2013-07-31 07:43:00,73.0,73.0,-100.00,NNW,337,0.0,2.0,99,0.00,,,0.73,10.000000,,2013-07-31 12:43:00,
2013-07-31 07:52:00,73.0,73.0,-100.00,NNW,337,0.0,2.0,99,0.00,,,0.73,10.000000,,2013-07-31 12:52:00,
2013-07-31 07:53:00,73.0,73.0,-100.00,SE,127,0.0,3.0,99,0.00,,,0.70,49.000000,,2013-07-31 12:53:00,
2013-07-31 08:12:00,73.0,73.0,-100.00,SE,127,0.0,3.0,99,0.00,,,0.70,49.000000,,2013-07-31 13:12:00,
2013-07-31 08:22:00,73.0,73.0,-100.00,SE,127,0.0,3.0,99,0.00,,,0.70,49.000000,,2013-07-31 13:22:00,
2013-07-31 08:33:00,73.0,73.0,-100.00,SE,127,0.0,3.0,99,0.00,,,0.70,49.000000,,2013-07-31 13:33:00,
2013-07-31 08:43:00,73.0,73.0,-100.00,SE,127,0.0,3.0,99,0.00,,,0.70,49.000000,,2013-07-31 13:43:00,
2013-07-31 08:53:00,76.0,75.0,-100.00,ESE,109,3.0,4.0,96,0.00,,,0.64,162.000000,,2013-07-31 13:53:00,
2013-07-31 09:12:00,76.0,75.0,-100.00,ESE,109,3.0,4.0,96,0.00,,,0.64,162.000000,,2013-07-31 14:12:00,
2013-07-31 09:23:00,76.0,75.0,-100.00,ESE,109,3.0,4.0,96,0.00,,,0.64,162.000000,,2013-07-31 14:23:00,
2013-07-31 09:34:00,76.0,75.0,-100.00,ESE,109,3.0,4.0,96,0.00,,,0.64,162.000000,,2013-07-31 14:34:00,
2013-07-31 09:43:00,76.0,75.0,-100.00,ESE,109,3.0,4.0,96,0.00,,,0.64,162.000000,,2013-07-31 14:43:00,
2013-07-31 10:12:00,81.0,76.0,-100.00,NW,324,2.0,5.0,84,0.00,,,0.03,389.000000,,2013-07-31 15:12:00,
2013-07-31 10:22:00,81.0,76.0,-100.00,NW,324,2.0,5.0,84,0.00,,,0.03,389.000000,,2013-07-31 15:22:00,
2013-07-31 10:33:00,81.0,76.0,-100.00,NW,324,2.0,5.0,84,0.00,,,0.03,389.000000,,2013-07-31 15:33:00,
2013-07-31 10:43:00,81.0,76.0,-100.00,NW,324,2.0,5.0,84,0.00,,,0.03,389.000000,,2013-07-31 15:43:00,
2013-07-31 10:52:00,81.0,76.0,-100.00,NW,324,2.0,5.0,84,0.00,,,0.03,389.000000,,2013-07-31 15:52:00,
2013-07-31 11:22:00,82.0,76.0,-100.00,NW,318,2.0,8.0,81,0.00,,,0.03,395.000000,,2013-07-31 16:22:00,
2013-07-31 11:33:00,82.0,76.0,-100.00,NW,318,2.0,8.0,81,0.00,,,0.03,395.000000,,2013-07-31 16:33:00,
2013-07-31 11:44:00,82.0,76.0,-100.00,NW,318,2.0,8.0,81,0.00,,,0.03,395.000000,,2013-07-31 16:44:00,
2013-07-31 11:52:00,82.0,76.0,-100.00,NW,318,2.0,8.0,81,0.00,,,0.03,395.000000,,2013-07-31 16:52:00,
2013-07-31 11:53:00,82.0,76.0,-100.00,NNW,334,4.0,7.0,83,0.01,,,0.04,528.000000,,2013-07-31 16:53:00,
2013-07-31 12:13:00,82.0,76.0,-100.00,NNW,334,4.0,7.0,83,0.01,,,0.04,528.000000,,2013-07-31 17:13:00,
2013-07-31 12:22:00,82.0,76.0,-100.00,NNW,334,4.0,7.0,83,0.01,,,0.04,528.000000,,2013-07-31 17:22:00,
2013-07-31 12:33:00,82.0,76.0,-100.00,NNW,334,4.0,7.0,83,0.01,,,0.04,528.000000,,2013-07-31 17:33:00,
2013-07-31 12:43:00,82.0,76.0,-100.00,NNW,334,4.0,7.0,83,0.01,,,0.04,528.000000,,2013-07-31 17:43:00,
2013-07-31 13:22:00,79.0,76.0,-100.00,SW,235,2.0,12.0,92,0.69,,,0.72,264.000000,,2013-07-31 18:22:00,
2013-07-31 13:32:00,79.0,76.0,-100.00,SW,235,2.0,12.0,92,0.69,,,0.72,264.000000,,2013-07-31 18:32:00,
2013-07-31 13:43:00,79.0,76.0,-100.00,SW,235,2.0,12.0,92,0.69,,,0.72,264.000000,,2013-07-31 18:43:00,
2013-07-31 13:52:00,79.0,76.0,-100.00,SW,235,2.0,12.0,92,0.69,,,0.72,264.000000,,2013-07-31 18:52:00,
2013-07-31 14:12:00,84.0,77.0,-100.00,North,356,6.0,9.0,80,0.00,,,0.71,751.000000,,2013-07-31 19:12:00,
2013-07-31 14:22:00,84.0,77.0,-100.00,North,356,6.0,9.0,80,0.00,,,0.71,751.000000,,2013-07-31 19:22:00,
2013-07-31 14:33:00,84.0,77.0,-100.00,North,356,6.0,9.0,80,0.00,,,0.71,751.000000,,2013-07-31 19:33:00,
2013-07-31 14:43:00,84.0,77.0,-100.00,North,356,6.0,9.0,80,0.00,,,0.71,751.000000,,2013-07-31 19:43:00,
2013-07-31 14:52:00,84.0,77.0,-100.00,North,356,6.0,9.0,80,0.00,,,0.71,751.000000,,2013-07-31 19:52:00,
2013-07-31 15:32:00,86.0,76.0,-100.00,North,357,4.0,9.0,73,0.00,,,0.71,735.000000,,2013-07-31 20:32:00,
2013-07-31 15:43:00,86.0,76.0,-100.00,North,357,4.0,9.0,73,0.00,,,0.71,735.000000,,2013-07-31 20:43:00,
2013-07-31 15:52:00,86.0,76.0,-100.00,North,357,4.0,9.0,73,0.00,,,0.71,735.000000,,2013-07-31 20:52:00,
2013-07-31 15:53:00,86.0,76.0,-100.00,NW,305,3.0,9.0,72,0.00,,,0.71,519.000000,,2013-07-31 20:53:00,
2013-07-31 16:13:00,86.0,76.0,-100.00,NW,305,3.0,9.0,72,0.00,,,0.71,519.000000,,2013-07-31 21:13:00,
2013-07-31 16:22:00,86.0,76.0,-100.00,NW,305,3.0,9.0,72,0.00,,,0.71,519.000000,,2013-07-31 21:22:00,
2013-07-31 16:32:00,86.0,76.0,-100.00,NW,305,3.0,9.0,72,0.00,,,0.71,519.000000,,2013-07-31 21:32:00,
2013-07-31 16:43:00,86.0,76.0,-100.00,NW,305,3.0,9.0,72,0.00,,,0.71,519.000000,,2013-07-31 21:43:00,
2013-07-31 16:53:00,87.0,75.0,-100.00,NNW,341,3.0,7.0,68,0.00,,,0.71,454.000000,,2013-07-31 21:53:00,
2013-07-31 17:22:00,87.0,75.0,-100.00,NNW,341,3.0,7.0,68,0.00,,,0.71,454.000000,,2013-07-31 22:22:00,
2013-07-31 17:33:00,87.0,75.0,-100.00,NNW,341,3.0,7.0,68,0.00,,,0.71,454.000000,,2013-07-31 22:33:00,
2013-07-31 17:43:00,87.0,75.0,-100.00,NNW,341,3.0,7.0,68,0.00,,,0.71,454.000000,,2013-07-31 22:43:00,
2013-07-31 18:12:00,84.0,73.0,-100.00,West,261,4.0,11.0,70,0.00,,,0.71,290.000000,,2013-07-31 23:12:00,
2013-07-31 18:22:00,84.0,73.0,-100.00,West,261,4.0,11.0,70,0.00,,,0.71,290.000000,,2013-07-31 23:22:00,
2013-07-31 18:32:00,84.0,73.0,-100.00,West,261,4.0,11.0,70,0.00,,,0.71,290.000000,,2013-07-31 23:32:00,
2013-07-31 18:42:00,84.0,73.0,-100.00,West,261,4.0,11.0,70,0.00,,,0.71,290.000000,,2013-07-31 23:42:00,
2013-07-31 18:52:00,84.0,73.0,-100.00,West,261,4.0,11.0,70,0.00,,,0.71,290.000000,,2013-07-31 23:52:00,
2013-07-31 19:12:00,83.0,75.0,-100.00,North,350,3.0,4.0,76,0.00,,,0.71,163.000000,,2013-08-01 00:12:00,
2013-07-31 19:22:00,83.0,75.0,-100.00,North,350,3.0,4.0,76,0.00,,,0.71,163.000000,,2013-08-01 00:22:00,
2013-07-31 19:32:00,83.0,75.0,-100.00,North,350,3.0,4.0,76,0.00,,,0.71,163.000000,,2013-08-01 00:32:00,
2013-07-31 19:43:00,83.0,75.0,-100.00,North,350,3.0,4.0,76,0.00,,,0.71,163.000000,,2013-08-01 00:43:00,
2013-07-31 19:52:00,83.0,75.0,-100.00,North,350,3.0,4.0,76,0.00,,,0.71,163.000000,,2013-08-01 00:52:00,
2013-07-31 21:12:00,78.0,77.0,-100.00,ESE,112,0.0,3.0,96,0.00,,,0.71,4.000000,,2013-08-01 02:12:00,
2013-07-31 21:22:00,78.0,77.0,-100.00,ESE,112,0.0,3.0,96,0.00,,,0.71,4.000000,,2013-08-01 02:22:00,
2013-07-31 21:32:00,78.0,77.0,-100.00,ESE,112,0.0,3.0,96,0.00,,,0.71,4.000000,,2013-08-01 02:32:00,
2013-07-31 21:43:00,78.0,77.0,-100.00,ESE,112,0.0,3.0,96,0.00,,,0.71,4.000000,,2013-08-01 02:43:00,
2013-07-31 21:52:00,78.0,77.0,-100.00,ESE,112,0.0,3.0,96,0.00,,,0.71,4.000000,,2013-08-01 02:52:00,
2013-07-31 21:53:00,76.0,75.0,-100.00,SW,215,2.0,3.0,97,0.00,,,0.71,1.000000,,2013-08-01 02:53:00,
2013-07-31 22:12:00,76.0,75.0,-100.00,SW,215,2.0,3.0,97,0.00,,,0.71,1.000000,,2013-08-01 03:12:00,
2013-07-31 22:22:00,76.0,75.0,-100.00,SW,215,2.0,3.0,97,0.00,,,0.71,1.000000,,2013-08-01 03:22:00,
2013-07-31 22:32:00,76.0,75.0,-100.00,SW,215,2.0,3.0,97,0.00,,,0.71,1.000000,,2013-08-01 03:32:00,
2013-07-31 22:43:00,76.0,75.0,-100.00,SW,215,2.0,3.0,97,0.00,,,0.71,1.000000,,2013-08-01 03:43:00,
2013-07-31 23:12:00,78.0,75.0,-100.00,SW,229,5.0,7.0,91,0.00,,,0.71,1.000000,,2013-08-01 04:12:00,
2013-07-31 23:22:00,78.0,75.0,-100.00,SW,229,5.0,7.0,91,0.00,,,0.71,1.000000,,2013-08-01 04:22:00,
2013-07-31 23:33:00,78.0,75.0,-100.00,SW,229,5.0,7.0,91,0.00,,,0.71,1.000000,,2013-08-01 04:33:00,
2013-07-31 23:43:00,78.0,75.0,-100.00,SW,229,5.0,7.0,91,0.00,,,0.71,1.000000,,2013-08-01 04:43:00,
2013-07-31 23:52:00,78.0,75.0,-100.00,SW,229,5.0,7.0,91,0.00,,,0.71,1.000000,,2013-08-01 04:52:00,
2013-07-31 23:53:00,76.0,72.0,-100.00,WSW,240,2.0,7.0,87,0.00,,,0.71,1.000000,,2013-08-01 04:53:00,